Regional Weather Roundup
Issued by NWS Portland, ME

Home | Current Version | Previous Version | Text Only | Print | Product List | Glossary On
Versions: 1 2 3 4 5 6 7 8 9 10 11 12 13 14 15 16 17 18 19 20 21 22 23 24 25 26 27 28 29 30 31 32 33 34 35 36 37 38 39 40 41 42 43 44 45 46 47 48 49 50
000
ASUS41 KGYX 251510
RWRGYX
WEATHER ROUNDUP FOR MAINE AND NEW HAMPSHIRE
NATIONAL WEATHER SERVICE GRAY ME
1100 AM EDT SAT APR 25 2015

MEZ002-005-006-010-012-015-018-020-021-024-026-027-029-251600-
MAINE

CITY           SKY/WX    TMP DP  RH WIND       PRES   REMARKS
PORTLAND       CLOUDY    48  29  47 NW16G22   29.71S
SANFORD        PTSUNNY   45  21  39 W16       29.72F
BAR HARBOR     CLOUDY    43  32  65 CALM      29.65S
WISCASSET      CLOUDY    44  29  55 W9        29.70S
ROCKLAND       CLOUDY    43  27  52 NW6       29.66S
FRYEBURG       CLOUDY    44  25  47 VRB5      29.70S
LEWISTONAUBURN CLOUDY    43  25  49 NW14G21   29.69F
AUGUSTA        CLOUDY    41  27  57 NW9       29.68S
WATERVILLE     CLOUDY    43  27  52 NW7G17    29.64F
BANGOR         CLOUDY    42  29  59 VRB3      29.65R
GREENVILLE       N/A     37  31  78 NW12G20   29.59R
MILLINOCKET    CLOUDY    42  31  64 NW8       29.64S
HOULTON        LGT RAIN  38  34  85 N8        29.61R FOG
PRESQUE ISLE   CLOUDY    37  30  75 NW8       29.63S
FRENCHVILLE    CLOUDY    37  31  78 N7        29.62R
CARIBOU        CLOUDY    37  32  82 N7        29.62S
$$

NHZ002-005-008-009-011-012-014-251600-
NEW HAMPSHIRE

CITY           SKY/WX    TMP DP  RH WIND       PRES   REMARKS
PORTSMOUTH     PTSUNNY   46  24  42 W15G25    29.71F
ROCHESTER      PTSUNNY   46  25  43 NW14G23   29.71F
NASHUA         MOSUNNY   49  24  37 W17G29    29.74F
MANCHESTER     MOSUNNY   47  23  38 NW8G18    29.72F
CONCORD        MOSUNNY   48  24  39 NW12      29.73F
LACONIA        PTSUNNY   41  25  52 W8        29.72S
PLYMOUTH       CLOUDY    43  32  66 W8        29.74F
BERLIN         CLOUDY    35  25  66 VRB7G17   29.70R
WHITEFIELD     CLOUDY    35  26  69 W9        29.73F
JAFFREY        MOSUNNY   45  24  43 NW12G20   29.73F
KEENE          PTSUNNY   46  25  42 N7        29.76F
LEBANON        MOSUNNY   46  26  45 NW15G26   29.73F
MT WASHINGTON  SNOW      16  16 100 NW52        N/A  VSB 1/16WCI  -9
$$

VTZ005-007-008-251600-
VERMONT

CITY           SKY/WX    TMP DP  RH WIND       PRES   REMARKS
ST JOHNSBURY     N/A     37  25  61 MISG      29.75R
MONTPELIER     CLOUDY    35  24  64 NW9       29.79S
BURLINGTON     CLOUDY    40  23  50 VRB6      29.81F
$$

MAZ007-012-024-CTZ003-RIZ002-NYZ038-NYZ072-251600-
SOUTHERN NEW ENGLAND AND NY

CITY           SKY/WX    TMP DP  RH WIND       PRES   REMARKS
BOSTON         MOSUNNY   48  25  40 NW12G21   29.74F
WORCESTER      SUNNY     44  22  41 NW9G20    29.74F
NANTUCKET      SUNNY     46  25  43 W10G20    29.76F
PROVIDENCE     SUNNY     49  24  37 W8G18     29.77F
HARTFORD       MOSUNNY   49  23  36 N8        29.79F
ALBANY         MOSUNNY   46  23  40 NW17      29.84F
NEW YORK CITY  PTSUNNY   48  23  37 NW14      29.87S
$$

ANZ081-ANZ082-ANZ150-NHZ014-MEZ023>029-251600-
COASTAL MARINE OBSERVATIONS

STATION/POSITION TIME  TEMP    WIND        PRES    WAVE
                       AIR SEA DIR/SP/G            HT/PER
                 (UTC) (F)     (DEG/KT/KT) (MB)    (FT/S)
$$

.............KEY..............
   WCI - WIND CHILL
   TC  - TEMPERATURE IN CELSIUS
   VSB - VISIBILITY IN MILES
   HX  - HEAT INDEX
   FAIR- INDICATES FEW OR NO CLOUDS BELOW 12,000 FT, WITH NO
         SIGNIFICANT WEATHER AND/OR OBSTRUCTIONS TO VISIBILITY.




USA.gov is the U.S. government's official web portal to all federal, state and local government web resources and services.